RHINO61 KFFO-KFFO

Flight info

Callsign RHINO61
Flight time 1h 20m
Altitude 38000
Route WIPOT APE TRAKK ACIDS SGH CINPA FYLLS ROD PLUMM MECAN
Aircraft C17/H-SDE1E2FGHIJ5RTUWXY/LB1D1

Departure

Time 2026-05-09 01:03
Airport Wright-Patterson Air Force Base (KFFO)

Arrival

Time 2026-05-09 02:23
Airport Wright-Patterson Air Force Base (KFFO)
Time Latitude Longitude Altitude Speed Heading
2026-05-09 00:46 39.83914 -84.03841 818 ft 0 kts 319°
2026-05-09 00:57 39.83930 -84.03858 815 ft 9 kts 319°
2026-05-09 00:57 39.83961 -84.03876 815 ft 7 kts
2026-05-09 00:57 39.84023 -84.03819 816 ft 16 kts 49°
2026-05-09 00:58 39.84056 -84.03731 816 ft 7 kts 109°
2026-05-09 00:58 39.83991 -84.03642 813 ft 24 kts 140°
2026-05-09 00:58 39.83901 -84.03513 813 ft 10 kts 95°
2026-05-09 00:58 39.83918 -84.03449 815 ft 8 kts 68°
2026-05-09 00:59 39.83918 -84.03380 812 ft 7 kts 104°
2026-05-09 00:59 39.83899 -84.03321 814 ft 8 kts 124°
2026-05-09 00:59 39.83854 -84.03268 813 ft 10 kts 139°
2026-05-09 00:59 39.83845 -84.03257 812 ft 0 kts 138°
2026-05-09 01:00 39.83844 -84.03257 816 ft 2 kts 138°
2026-05-09 01:00 39.83818 -84.03225 815 ft 9 kts 137°
2026-05-09 01:01 39.83731 -84.03198 816 ft 15 kts 216°
2026-05-09 01:01 39.83682 -84.03262 814 ft 5 kts 220°
2026-05-09 01:01 39.83660 -84.03291 812 ft 4 kts 228°
2026-05-09 01:01 39.83657 -84.03296 812 ft 1 kts 228°
2026-05-09 01:02 39.83553 -84.03448 811 ft 55 kts 229°
2026-05-09 01:02 39.83159 -84.04037 814 ft 120 kts 228°
2026-05-09 01:02 39.82472 -84.05059 891 ft 170 kts 229°
2026-05-09 01:02 39.81647 -84.06301 1344 ft 197 kts 230°
2026-05-09 01:03 39.80691 -84.07733 1899 ft 224 kts 231°
2026-05-09 01:03 39.79588 -84.09377 2298 ft 260 kts 230°
2026-05-09 01:03 39.78255 -84.11319 2226 ft 306 kts 229°
2026-05-09 01:03 39.76950 -84.13194 2583 ft 232 kts 229°
2026-05-09 01:04 39.75966 -84.14585 2695 ft 188 kts 229°
2026-05-09 01:04 39.75163 -84.15718 2676 ft 153 kts 229°
2026-05-09 01:04 39.74386 -84.16805 2768 ft 183 kts 228°
2026-05-09 01:04 39.73530 -84.18018 2940 ft 171 kts 229°
2026-05-09 01:05 39.72788 -84.19079 2979 ft 147 kts 229°
2026-05-09 01:05 39.72014 -84.20182 3043 ft 187 kts 229°
2026-05-09 01:05 39.69929 -84.23190 3403 ft 251 kts 225°
2026-05-09 01:06 39.68397 -84.24243 3907 ft 270 kts 191°
2026-05-09 01:06 39.66563 -84.23854 4428 ft 254 kts 155°
2026-05-09 01:06 39.65455 -84.22253 4762 ft 231 kts 115°
2026-05-09 01:06 39.65432 -84.20139 5291 ft 250 kts 74°
2026-05-09 01:07 39.66379 -84.18238 5628 ft 244 kts 46°
2026-05-09 01:07 39.67540 -84.16706 6065 ft 239 kts 44°
2026-05-09 01:07 39.68727 -84.15212 6497 ft 241 kts 43°
2026-05-09 01:07 39.69937 -84.13701 6890 ft 242 kts 43°
2026-05-09 01:08 39.71016 -84.12329 7251 ft 243 kts 43°
2026-05-09 01:08 39.72142 -84.10665 7617 ft 246 kts 57°
2026-05-09 01:08 39.72934 -84.08684 7980 ft 249 kts 67°
2026-05-09 01:08 39.73553 -84.06591 8318 ft 241 kts 71°
2026-05-09 01:09 39.73998 -84.04522 8458 ft 235 kts 78°
2026-05-09 01:09 39.74343 -84.02401 8565 ft 237 kts 80°
2026-05-09 01:09 39.74679 -84.00255 8733 ft 246 kts 79°
2026-05-09 01:09 39.75047 -83.98060 8979 ft 253 kts 78°
2026-05-09 01:10 39.75444 -83.95814 9279 ft 256 kts 77°
2026-05-09 01:10 39.75799 -83.93766 9621 ft 260 kts 77°
2026-05-09 01:10 39.76090 -83.92078 9943 ft 261 kts 76°
2026-05-09 01:10 39.76495 -83.89794 10269 ft 259 kts 77°
2026-05-09 01:11 39.76876 -83.87493 10559 ft 263 kts 78°
2026-05-09 01:11 39.77235 -83.85167 11115 ft 267 kts 78°
2026-05-09 01:11 39.77629 -83.82804 11777 ft 268 kts 76°
2026-05-09 01:11 39.78047 -83.80443 12424 ft 271 kts 75°
2026-05-09 01:12 39.78464 -83.78054 13087 ft 273 kts 75°
2026-05-09 01:12 39.78873 -83.75639 13698 ft 275 kts 74°
2026-05-09 01:12 39.79283 -83.73199 14241 ft 277 kts 74°
2026-05-09 01:12 39.79699 -83.70740 14779 ft 280 kts 75°
2026-05-09 01:13 39.80114 -83.68263 15307 ft 282 kts 75°
2026-05-09 01:13 39.80534 -83.65758 15828 ft 285 kts 75°
2026-05-09 01:13 39.80964 -83.63200 16112 ft 298 kts 75°
2026-05-09 01:13 39.81422 -83.60479 16177 ft 318 kts 75°
2026-05-09 01:14 39.81903 -83.57582 16260 ft 336 kts 75°
2026-05-09 01:14 39.82403 -83.54574 16394 ft 353 kts 76°
2026-05-09 01:14 39.82938 -83.51406 16777 ft 359 kts 73°
2026-05-09 01:14 39.83678 -83.48294 17280 ft 360 kts 68°
2026-05-09 01:15 39.84440 -83.45282 17769 ft 362 kts 69°
2026-05-09 01:15 39.85228 -83.42019 18265 ft 366 kts 70°
2026-05-09 01:15 39.86027 -83.38857 18631 ft 370 kts 68°
2026-05-09 01:15 39.86893 -83.35688 19017 ft 372 kts 66°
2026-05-09 01:16 39.87907 -83.32586 19387 ft 374 kts 59°
2026-05-09 01:16 39.89073 -83.29550 19751 ft 376 kts 59°
2026-05-09 01:16 39.90229 -83.26479 20105 ft 380 kts 60°
2026-05-09 01:17 39.92543 -83.20228 20846 ft 386 kts 60°
2026-05-09 01:17 39.93718 -83.17070 21221 ft 387 kts 60°
2026-05-09 01:17 39.94903 -83.13883 21529 ft 391 kts 60°
2026-05-09 01:17 39.96088 -83.10667 21847 ft 396 kts 60°
2026-05-09 01:18 39.97288 -83.07422 22203 ft 400 kts 60°
2026-05-09 01:18 39.98500 -83.04154 22516 ft 402 kts 60°
2026-05-09 01:18 39.99697 -83.00907 22872 ft 405 kts 60°
2026-05-09 01:18 40.00910 -82.97602 23693 ft 389 kts 59°
2026-05-09 01:19 40.02050 -82.94503 24473 ft 372 kts 59°
2026-05-09 01:19 40.03161 -82.91498 24993 ft 367 kts 58°
2026-05-09 01:19 40.04271 -82.88504 25014 ft 377 kts 59°
2026-05-09 01:19 40.05362 -82.85521 25062 ft 387 kts 59°
2026-05-09 01:20 40.06535 -82.82309 25106 ft 397 kts 59°
2026-05-09 01:20 40.07740 -82.79019 25157 ft 407 kts 59°
2026-05-09 01:20 40.08976 -82.75644 25219 ft 417 kts 59°
2026-05-09 01:20 40.10234 -82.72197 25391 ft 422 kts 59°
2026-05-09 01:21 40.11503 -82.68719 25662 ft 425 kts 59°
2026-05-09 01:21 40.12786 -82.65206 25802 ft 432 kts 59°
2026-05-09 01:21 40.14210 -82.61739 25869 ft 432 kts 46°
2026-05-09 01:21 40.16357 -82.59117 25911 ft 416 kts 22°
2026-05-09 01:22 40.18980 -82.57810 25937 ft 396 kts 358°
2026-05-09 01:22 40.21642 -82.57976 25953 ft 374 kts 334°
2026-05-09 01:22 40.23848 -82.59533 25955 ft 355 kts 310°
2026-05-09 01:22 40.25182 -82.62110 25952 ft 346 kts 285°
2026-05-09 01:23 40.25400 -82.65232 25959 ft 352 kts 262°
2026-05-09 01:23 40.24718 -82.68319 25932 ft 364 kts 254°
2026-05-09 01:23 40.23860 -82.71549 25896 ft 375 kts 253°
2026-05-09 01:23 40.23007 -82.74815 25881 ft 384 kts 255°
2026-05-09 01:24 40.22583 -82.78263 25884 ft 387 kts 269°
2026-05-09 01:24 40.22706 -82.81812 25891 ft 395 kts 275°
2026-05-09 01:24 40.23109 -82.85349 25898 ft 389 kts 279°
2026-05-09 01:24 40.23642 -82.88793 26141 ft 382 kts 280°
2026-05-09 01:25 40.24230 -82.92165 26641 ft 377 kts 282°
2026-05-09 01:25 40.25030 -82.95426 27168 ft 376 kts 287°
2026-05-09 01:25 40.25921 -82.98624 27697 ft 371 kts 287°
2026-05-09 01:25 40.26766 -83.01751 28228 ft 366 kts 286°
2026-05-09 01:26 40.27602 -83.04873 28783 ft 361 kts 286°
2026-05-09 01:26 40.28428 -83.07948 29334 ft 355 kts 286°
2026-05-09 01:26 40.29252 -83.11015 29906 ft 349 kts 286°
2026-05-09 01:26 40.29844 -83.13990 30406 ft 337 kts 273°
2026-05-09 01:27 40.29790 -83.15579 30680 ft 333 kts 263°
2026-05-09 01:27 40.29303 -83.18398 31166 ft 327 kts 256°
2026-05-09 01:27 40.28537 -83.21176 31664 ft 321 kts 252°
2026-05-09 01:27 40.27656 -83.23829 32171 ft 314 kts 250°
2026-05-09 01:28 40.26686 -83.26381 32447 ft 314 kts 246°
2026-05-09 01:28 40.25546 -83.28811 32604 ft 316 kts 244°
2026-05-09 01:28 40.24396 -83.31242 32743 ft 315 kts 245°
2026-05-09 01:28 40.23264 -83.33701 32896 ft 315 kts 245°
2026-05-09 01:29 40.22136 -83.36156 33028 ft 315 kts 245°
2026-05-09 01:29 40.21000 -83.38608 33167 ft 316 kts 245°
2026-05-09 01:29 40.19825 -83.41045 33294 ft 318 kts 242°
2026-05-09 01:29 40.18480 -83.43368 33436 ft 321 kts 238°
2026-05-09 01:30 40.17011 -83.45582 33551 ft 324 kts 236°
2026-05-09 01:30 40.15483 -83.47754 33675 ft 325 kts 235°
2026-05-09 01:30 40.13829 -83.49799 33782 ft 330 kts 231°
2026-05-09 01:30 40.12083 -83.51771 33857 ft 332 kts 231°
2026-05-09 01:31 40.08617 -83.55776 33906 ft 337 kts 231°
2026-05-09 01:31 40.05075 -83.59870 33916 ft 343 kts 231°
2026-05-09 01:32 40.01460 -83.64041 33924 ft 350 kts 231°
2026-05-09 01:32 39.97776 -83.68286 33915 ft 357 kts 230°
2026-05-09 01:33 39.94020 -83.72605 33913 ft 363 kts 230°
2026-05-09 01:33 39.90199 -83.76995 33900 ft 370 kts 230°
2026-05-09 01:34 39.86321 -83.81490 33899 ft 373 kts 233°
2026-05-09 01:34 39.83248 -83.86753 33902 ft 362 kts 243°
2026-05-09 01:35 39.80746 -83.92277 33901 ft 351 kts 249°
2026-05-09 01:35 39.78671 -83.97999 33909 ft 350 kts 249°
2026-05-09 01:36 39.76538 -84.03734 33897 ft 353 kts 249°
2026-05-09 01:36 39.74394 -84.09517 33911 ft 356 kts 249°
2026-05-09 01:37 39.72241 -84.15302 33910 ft 356 kts 249°
2026-05-09 01:37 39.70088 -84.21080 33917 ft 354 kts 249°
2026-05-09 01:38 39.67954 -84.26792 33912 ft 353 kts 249°
2026-05-09 01:38 39.65808 -84.32527 33912 ft 354 kts 249°
2026-05-09 01:39 39.64936 -84.35477 33924 ft 347 kts 263°
2026-05-09 01:39 39.65193 -84.38575 33961 ft 353 kts 286°
2026-05-09 01:39 39.66653 -84.41237 33973 ft 379 kts 309°
2026-05-09 01:39 39.68775 -84.43203 33945 ft 391 kts 315°
2026-05-09 01:40 39.73349 -84.47316 33909 ft 398 kts 314°
2026-05-09 01:40 39.77895 -84.51436 33910 ft 397 kts 314°
2026-05-09 01:41 39.82391 -84.55518 33912 ft 392 kts 314°
2026-05-09 01:41 39.86859 -84.59580 33916 ft 391 kts 314°
2026-05-09 01:42 39.89270 -84.61232 33927 ft 415 kts 332°
2026-05-09 01:42 39.91254 -84.61624 33942 ft 440 kts 347°
2026-05-09 01:42 39.95372 -84.60380 33941 ft 486 kts 16°
2026-05-09 01:42 39.98194 -84.57743 33935 ft 514 kts 38°
2026-05-09 01:43 40.00340 -84.53922 33933 ft 533 kts 59°
2026-05-09 01:43 40.01779 -84.49429 33916 ft 539 kts 64°
2026-05-09 01:43 40.04621 -84.42166 33498 ft 546 kts 53°
2026-05-09 01:44 40.06828 -84.38155 32979 ft 539 kts 43°
2026-05-09 01:44 40.09296 -84.34530 32454 ft 532 kts 43°
2026-05-09 01:44 40.11660 -84.30847 31935 ft 524 kts 44°
2026-05-09 01:44 40.13996 -84.27231 31419 ft 517 kts 43°
2026-05-09 01:45 40.16319 -84.23650 30912 ft 514 kts 43°
2026-05-09 01:45 40.18625 -84.20078 30427 ft 514 kts 44°
2026-05-09 01:45 40.20929 -84.16508 29944 ft 515 kts 44°
2026-05-09 01:45 40.23234 -84.12931 29385 ft 515 kts 44°
2026-05-09 01:46 40.25547 -84.09338 28815 ft 516 kts 44°
2026-05-09 01:46 40.27626 -84.05645 28238 ft 482 kts 58°
2026-05-09 01:46 40.28649 -84.01665 27435 ft 448 kts 81°
2026-05-09 01:46 40.28546 -83.97626 26675 ft 441 kts 105°
2026-05-09 01:47 40.27406 -83.93994 25947 ft 425 kts 130°
2026-05-09 01:47 40.25436 -83.91312 25392 ft 392 kts 156°
2026-05-09 01:47 40.23100 -83.89857 25146 ft 359 kts 171°
2026-05-09 01:47 40.20826 -83.88735 25010 ft 344 kts 166°
2026-05-09 01:48 40.18798 -83.87114 24898 ft 339 kts 154°
2026-05-09 01:48 40.17053 -83.85180 24725 ft 329 kts 147°
2026-05-09 01:48 40.15451 -83.82978 24041 ft 342 kts 137°
2026-05-09 01:48 40.13955 -83.80517 23325 ft 348 kts 136°
2026-05-09 01:49 40.12426 -83.78033 22514 ft 353 kts 136°
2026-05-09 01:49 40.10859 -83.75540 21722 ft 357 kts 136°
2026-05-09 01:49 40.09274 -83.73021 20953 ft 361 kts 136°
2026-05-09 01:49 40.07680 -83.70472 20216 ft 364 kts 135°
2026-05-09 01:50 40.06072 -83.67904 19483 ft 366 kts 135°
2026-05-09 01:50 40.04452 -83.65323 18777 ft 368 kts 135°
2026-05-09 01:50 40.02825 -83.62737 18056 ft 369 kts 134°
2026-05-09 01:50 40.01251 -83.60234 17290 ft 370 kts 134°
2026-05-09 01:51 39.99590 -83.57596 16497 ft 370 kts 134°
2026-05-09 01:51 39.97959 -83.55005 15729 ft 371 kts 133°
2026-05-09 01:51 39.96475 -83.52274 14975 ft 374 kts 117°
2026-05-09 01:51 39.95917 -83.48992 14415 ft 368 kts 88°
2026-05-09 01:52 39.96448 -83.45978 14170 ft 318 kts 58°
2026-05-09 01:52 39.97853 -83.43896 14070 ft 305 kts 25°
2026-05-09 01:52 39.99827 -83.43056 14015 ft 294 kts 354°
2026-05-09 01:52 40.01706 -83.43663 14008 ft 271 kts 322°
2026-05-09 01:53 40.02925 -83.45423 13996 ft 260 kts 297°
2026-05-09 01:53 40.03829 -83.47479 13965 ft 261 kts 296°
2026-05-09 01:53 40.04929 -83.49346 13934 ft 266 kts 317°
2026-05-09 01:53 40.06480 -83.50680 13930 ft 264 kts 313°
2026-05-09 01:54 40.07691 -83.52455 13938 ft 264 kts 307°
2026-05-09 01:54 40.08756 -83.54356 13938 ft 262 kts 298°
2026-05-09 01:54 40.09492 -83.56490 13937 ft 256 kts 277°
2026-05-09 01:54 40.09355 -83.58807 13941 ft 259 kts 261°
2026-05-09 01:55 40.08757 -83.61038 13934 ft 262 kts 251°
2026-05-09 01:55 40.08125 -83.63279 13745 ft 264 kts 254°
2026-05-09 01:55 40.07593 -83.65317 13159 ft 224 kts 255°
2026-05-09 01:55 40.07108 -83.67212 12531 ft 220 kts 254°
2026-05-09 01:56 40.06619 -83.69131 11862 ft 226 kts 254°
2026-05-09 01:56 40.06044 -83.71084 11070 ft 232 kts 247°
2026-05-09 01:56 40.05307 -83.72963 10367 ft 230 kts 244°
2026-05-09 01:56 40.04542 -83.74660 9738 ft 213 kts 242°
2026-05-09 01:57 40.03778 -83.76269 8940 ft 196 kts 240°
2026-05-09 01:57 40.03107 -83.77668 8162 ft 170 kts 240°
2026-05-09 01:57 40.02507 -83.78901 7421 ft 153 kts 235°
2026-05-09 01:57 40.01846 -83.79912 6698 ft 142 kts 228°
2026-05-09 01:58 40.01072 -83.80486 6323 ft 117 kts 212°
2026-05-09 01:58 40.00495 -83.81270 6232 ft 134 kts 232°
2026-05-09 01:58 39.99801 -83.82349 6115 ft 183 kts 228°
2026-05-09 01:58 39.98523 -83.83206 5412 ft 210 kts 194°
2026-05-09 01:59 39.97347 -83.83826 4776 ft 163 kts 220°
2026-05-09 01:59 39.96432 -83.84735 3815 ft 180 kts 218°
2026-05-09 01:59 39.95397 -83.85720 3358 ft 181 kts 220°
2026-05-09 01:59 39.94422 -83.86705 3056 ft 177 kts 219°
2026-05-09 02:00 39.93500 -83.87674 2892 ft 155 kts 238°
2026-05-09 02:00 39.93092 -83.88911 2677 ft 146 kts 248°
2026-05-09 02:00 39.92575 -83.89982 2709 ft 136 kts 229°
2026-05-09 02:00 39.91932 -83.90910 2858 ft 143 kts 230°
2026-05-09 02:01 39.91243 -83.91934 2992 ft 153 kts 231°
2026-05-09 02:01 39.90516 -83.93035 3032 ft 168 kts 230°
2026-05-09 02:01 39.89696 -83.94243 3031 ft 186 kts 230°
2026-05-09 02:01 39.88931 -83.95364 2735 ft 149 kts 229°
2026-05-09 02:02 39.88304 -83.96301 2506 ft 128 kts 231°
2026-05-09 02:02 39.87734 -83.97161 2372 ft 124 kts 231°
2026-05-09 02:02 39.87160 -83.98018 2218 ft 131 kts 231°
2026-05-09 02:02 39.86557 -83.98963 2007 ft 141 kts 235°
2026-05-09 02:03 39.85907 -83.99934 1807 ft 142 kts 231°
2026-05-09 02:03 39.85244 -84.00912 1506 ft 144 kts 230°
2026-05-09 02:03 39.84596 -84.01877 1203 ft 137 kts 231°
2026-05-09 02:03 39.83972 -84.02816 937 ft 138 kts 230°
2026-05-09 02:04 39.83376 -84.03714 819 ft 120 kts 229°
2026-05-09 02:04 39.82749 -84.04648 851 ft 160 kts 228°
2026-05-09 02:04 39.81936 -84.05873 1299 ft 191 kts 231°
2026-05-09 02:04 39.81121 -84.07197 2226 ft 194 kts 233°
2026-05-09 02:05 39.80085 -84.08485 2541 ft 220 kts 202°
2026-05-09 02:05 39.78594 -84.07878 2281 ft 263 kts 130°
2026-05-09 02:05 39.77402 -84.06147 2777 ft 245 kts 137°
2026-05-09 02:05 39.76808 -84.04167 1847 ft 267 kts 72°
2026-05-09 02:06 39.77739 -84.01918 1724 ft 285 kts 58°
2026-05-09 02:06 39.78745 -83.99676 1817 ft 280 kts 59°
2026-05-09 02:06 39.79643 -83.97557 2076 ft 262 kts 61°
2026-05-09 02:07 39.82165 -83.95282 2157 ft 219 kts 339°
2026-05-09 02:07 39.83517 -83.96196 2037 ft 215 kts 323°
2026-05-09 02:07 39.84570 -83.97441 1931 ft 190 kts 311°
2026-05-09 02:07 39.85285 -83.98718 1795 ft 163 kts 289°
2026-05-09 02:08 39.85366 -84.00137 1516 ft 158 kts 259°
2026-05-09 02:08 39.84909 -84.01401 1266 ft 151 kts 231°
2026-05-09 02:08 39.84249 -84.02405 1005 ft 143 kts 230°
2026-05-09 02:08 39.83621 -84.03348 827 ft 130 kts 229°
2026-05-09 02:09 39.83037 -84.04218 810 ft 147 kts 229°
2026-05-09 02:09 39.82257 -84.05376 1017 ft 191 kts 229°
2026-05-09 02:09 39.81285 -84.06786 1479 ft 225 kts 229°
2026-05-09 02:09 39.80174 -84.08320 1966 ft 234 kts 219°
2026-05-09 02:10 39.78606 -84.08600 2005 ft 249 kts 158°
2026-05-09 02:10 39.77268 -84.07158 1891 ft 249 kts 138°
2026-05-09 02:10 39.76764 -84.05256 1836 ft 233 kts 62°
2026-05-09 02:10 39.77793 -84.03800 1741 ft 210 kts 47°
2026-05-09 02:11 39.78728 -84.02370 1711 ft 207 kts 50°
2026-05-09 02:11 39.79621 -84.00877 1701 ft 209 kts 52°
2026-05-09 02:11 39.80579 -83.99452 1927 ft 203 kts 44°
2026-05-09 02:11 39.81646 -83.98227 2107 ft 201 kts 18°
2026-05-09 02:12 39.82880 -83.98588 1859 ft 185 kts 310°
2026-05-09 02:12 39.83750 -83.99763 1741 ft 179 kts 315°
2026-05-09 02:12 39.84549 -84.00881 1617 ft 153 kts 291°
2026-05-09 02:12 39.84412 -84.02125 1220 ft 142 kts 233°
2026-05-09 02:13 39.84292 -84.02312 1162 ft 139 kts 230°
2026-05-09 02:13 39.83748 -84.03153 849 ft 138 kts 229°
2026-05-09 02:13 39.83181 -84.04002 815 ft 111 kts 230°
2026-05-09 02:14 39.82549 -84.04934 824 ft 167 kts 229°
2026-05-09 02:14 39.81736 -84.06159 1322 ft 188 kts 230°
2026-05-09 02:14 39.80817 -84.07551 1745 ft 221 kts 233°
2026-05-09 02:14 39.80522 -84.09461 2300 ft 236 kts 290°
2026-05-09 02:15 39.81775 -84.11031 2553 ft 273 kts 322°
2026-05-09 02:15 39.83474 -84.12520 2353 ft 297 kts 332°
2026-05-09 02:15 39.85370 -84.12051 2325 ft 318 kts 52°
2026-05-09 02:15 39.86350 -84.09688 1886 ft 274 kts 62°
2026-05-09 02:16 39.87194 -84.07534 1818 ft 261 kts 61°
2026-05-09 02:16 39.88006 -84.05561 2030 ft 232 kts 70°
2026-05-09 02:16 39.87977 -84.03573 1817 ft 221 kts 119°
2026-05-09 02:16 39.87118 -84.02144 1729 ft 185 kts 133°
2026-05-09 02:17 39.86204 -84.01178 1512 ft 155 kts 163°
2026-05-09 02:17 39.85282 -84.01281 1419 ft 132 kts 200°
2026-05-09 02:17 39.84543 -84.01961 1112 ft 134 kts 226°
2026-05-09 02:17 39.83929 -84.02885 907 ft 135 kts 230°
2026-05-09 02:18 39.83341 -84.03766 813 ft 125 kts 229°
2026-05-09 02:18 39.82666 -84.04806 984 ft 172 kts 232°
2026-05-09 02:18 39.81747 -84.06074 1356 ft 212 kts 225°
2026-05-09 02:18 39.80739 -84.07516 1892 ft 218 kts 231°
2026-05-09 02:19 39.79971 -84.09179 2424 ft 212 kts 264°
2026-05-09 02:19 39.80545 -84.10665 1936 ft 218 kts 322°
2026-05-09 02:19 39.81747 -84.11731 1921 ft 216 kts 323°
2026-05-09 02:19 39.83115 -84.12224 1995 ft 213 kts 15°
2026-05-09 02:20 39.84256 -84.11061 1804 ft 213 kts 43°
2026-05-09 02:20 39.85286 -84.09695 1830 ft 205 kts 45°
2026-05-09 02:20 39.86113 -84.08206 1845 ft 206 kts 58°
2026-05-09 02:20 39.86852 -84.06593 2083 ft 212 kts 58°
2026-05-09 02:21 39.87239 -84.04794 2245 ft 211 kts 97°
2026-05-09 02:21 39.86818 -84.03043 2185 ft 187 kts 117°
2026-05-09 02:21 39.86272 -84.01657 1897 ft 161 kts 126°
2026-05-09 02:21 39.85395 -84.01185 1612 ft 134 kts 211°
2026-05-09 02:22 39.84656 -84.01907 1147 ft 135 kts 213°
2026-05-09 02:22 39.84028 -84.02743 926 ft 125 kts 229°
2026-05-09 02:22 39.83461 -84.03586 822 ft 117 kts 229°
2026-05-09 02:22 39.82999 -84.04271 813 ft 85 kts 229°
2026-05-09 02:23 39.82708 -84.04701 814 ft 48 kts 228°
2026-05-09 02:23 39.82484 -84.05033 815 ft 51 kts 229°
2026-05-09 02:23 39.82293 -84.05330 808 ft 25 kts 243°
2026-05-09 02:23 39.82312 -84.05428 814 ft 9 kts 319°
2026-05-09 02:24 39.82383 -84.05509 811 ft 21 kts 319°
2026-05-09 02:24 39.82472 -84.05590 815 ft 7 kts
2026-05-09 02:24 39.82527 -84.05532 815 ft 22 kts 49°
2026-05-09 02:24 39.82683 -84.05301 814 ft 35 kts 49°
2026-05-09 02:25 39.82835 -84.05075 817 ft 31 kts 49°
2026-05-09 02:25 39.82967 -84.04878 816 ft 29 kts 49°
2026-05-09 02:25 39.83104 -84.04673 817 ft 34 kts 49°
2026-05-09 02:25 39.83278 -84.04411 813 ft 33 kts 49°
2026-05-09 02:26 39.83386 -84.04369 815 ft 13 kts 322°
2026-05-09 02:26 39.83441 -84.04367 814 ft 14 kts 42°
2026-05-09 02:26 39.83530 -84.04241 815 ft 24 kts 47°
2026-05-09 02:26 39.83660 -84.04054 814 ft 29 kts 49°